Regional Weather Roundup
Issued by NWS

Home | Current Version | Previous Version | Text Only | Print | Product List | Glossary Off
Versions: 1 2 3 4 5 6 7 8 9 10 11 12 13 14 15 16 17 18 19 20 21 22 23 24 25 26 27 28 29 30 31 32 33 34 35 36 37 38 39 40 41 42 43 44 45 46 47 48 49 50

000
ASUS44 KMEG 062100
RWRTN
TENNESSEE HOURLY STATE WEATHER ROUNDUP
NATIONAL WEATHER SERVICE MEMPHIS TN
300 PM CST FRI MAR 06 2015

TNZ002-004-019-021-049-052-054-088>092-062200-
WEST TENNESSEE

CITY           SKY/WX    TMP DP  RH WIND       PRES   REMARKS
MEMPHIS INTL   SUNNY     40  13  33 W6        30.52F
NWS MEMPHIS      N/A     40 N/A N/A MISG        N/A
JACKSON        SUNNY     36   6  28 N3        30.51F
DYERSBURG      SUNNY     34   7  32 S6        30.53F WCI  29
UNION CITY     SUNNY     30  16  55 S5        30.50F WCI  25
PARIS          SUNNY     30  10  43 S3        30.49F
LEXINGTON      SUNNY     36  12  38 S5        30.49S WCI  32
SAVANNAH       SUNNY     37  12  35 N8        30.50S WCI  31
$$

TNZ008-025-027-028-033-062-065-066-062200-
NORTH MIDDLE TENNESSEE

CITY           SKY/WX    TMP DP  RH WIND       PRES   REMARKS
NASHVILLE      SUNNY     35  16  45 CALM      30.49F
CLARKSVILLE    SUNNY     33  14  45 N5        30.48F WCI  29
COOKEVILLE       N/A     34  19  55 CALM      30.45S
CROSSVILLE     SUNNY     34  16  47 W7        30.40S WCI  28
$$

TNZ061-075-076-078-094-096-097-062200-
SOUTH MIDDLE TENNESSEE

CITY           SKY/WX    TMP DP  RH WIND       PRES   REMARKS
FAYETTEVILLE   SUNNY     34  19  55 N7          N/A  WCI  28
TULLAHOMA      SUNNY     36  18  48 W6          N/A  WCI  31
WINCHESTER     SUNNY     36  19  51 N5        30.45F WCI  32
COLUMBIA         N/A     36  16  44 NE3       30.46F
SHELBYVILLE    SUNNY     34  25  69 VRB5      30.49S WCI  30
$$

TNZ017-018-042-046-047-062200-
NORTHEAST TENNESSEE

CITY           SKY/WX    TMP DP  RH WIND       PRES   REMARKS
TRI CITIES     MOSUNNY   36  17  46 VRB6G16   30.39S WCI  31
ELIZABETHTON   CLEAR     36  19  51 W8        30.37S WCI  29
$$

TNZ012-013-036-069-073-074-062200-
CENTRAL EAST TENNESSEE

CITY           SKY/WX    TMP DP  RH WIND       PRES   REMARKS
KNOXVILLE      MOSUNNY   37  18  46 VRB5      30.43F WCI  33
OAK RIDGE      SUNNY     40  16  37 W6        30.44F
GATLINBURG     CLEAR     39  23  52 VRB7      30.41F WCI  34
$$

TNZ083-085-099-062200-
SOUTHEAST TENNESSEE

CITY           SKY/WX    TMP DP  RH WIND       PRES   REMARKS
CHATTANOOGA    MOSUNNY   44  21  40 VRB6      30.44F
$$

SKY/WX REPORTED AS FAIR MEANS FEW OR NO CLOUDS BELOW
12 THOUSAND FEET.



USA.gov is the U.S. government's official web portal to all federal, state and local government web resources and services.